Latest Coastal Weather Observations for Warrnambool

IDV60701

Issued at 8:35 pm EDT Wednesday 22 October 2014 (issued every 10 minutes, with the page automatically refreshed every 10 minutes)

About coastal observations | Map of coastal stations | Coastal observations for VIC | Marine services | Other Formats
Station Details ID: 090186 Name: WARRNAMBOOL AIRPORT NDB Lat: -38.29 Lon: 142.45 Height: 70.8 m
Data from the previous 72 hours. | See also: Recent months at Warrnambool
Date/Time
EDT
Temp

°C
Wind Pressure Rain
since 9am
mm
Weather Cloud Vis
km
Sea
Height
m
Swell
Dir
 
Speed
knots
Gust
knots
hPa Trend Height
m
Period
s
Dir
22/08:30pm 13.4 S 11 15 1020.2 - 0.0 - - - - - - -
22/08:00pm 13.4 S 12 16 1019.8 - 0.0 - - - - - - -
22/07:30pm 13.5 SSW 12 15 1019.8 - 0.0 - - - - - - -
22/07:00pm 13.7 SSW 14 18 1018.6 - 0.0 - - - - - - -
22/06:30pm 14.0 SSW 13 17 1018.1 - 0.0 - - - - - - -
22/06:00pm 14.5 SSW 13 17 1017.2 - 0.0 - - - - - - -
22/05:30pm 15.3 SSW 14 18 1017.1 - 0.0 - - - - - - -
22/05:00pm 16.0 SSW 14 17 1017.2 - 0.0 - - - - - - -
22/04:30pm 16.8 SSW 17 21 1017.4 - 0.0 - - - - - - -
22/04:00pm 19.5 SW 15 19 1016.9 - 0.0 - - - - - - -
22/03:30pm 22.7 SW 14 18 1016.6 - 0.0 - - - - - - -
22/03:00pm 24.7 SW 13 19 1016.5 - 0.0 - - - - - - -
22/02:30pm 22.8 SSW 13 18 1016.7 - 0.0 - - - - - - -
22/02:00pm 24.6 SSW 14 18 1016.6 - 0.0 - - - - - - -
22/01:30pm 25.9 SSW 9 14 1016.5 - 0.0 - - - - - - -
22/01:00pm 25.9 SSW 10 13 1016.6 - 0.0 - - - - - - -
22/12:30pm 25.9 W 7 11 1016.8 - 0.0 - - - - - - -
22/12:00pm 24.4 NNE 8 10 1016.3 - 0.0 - - - - - - -
22/11:30am 24.0 NE 4 6 1016.8 - 0.0 - - - - - - -
22/11:00am 23.8 NE 5 6 1017.2 - 0.0 - - - - - - -
22/10:30am 23.2 NNE 5 8 1017.4 - 0.0 - - - - - - -
22/10:00am 22.2 NNE 5 7 1017.6 - 0.0 - - - - - - -
22/09:30am 21.6 NE 2 4 1017.8 - 0.0 - - - - - - -
22/09:00am 20.5 ESE 2 4 1017.7 - 0.0 - - - - - - -
22/08:30am 18.7 NE 5 7 1017.6 - 0.0 - - - - - - -
22/08:00am 16.9 NNE 7 9 1017.2 - 0.0 - - - - - - -
22/07:30am 13.8 ESE 1 5 1017.3 - 0.0 - - - - - - -
22/07:00am 14.0 N 11 13 1017.3 - 0.0 - - - - - - -
22/06:30am 14.2 N 11 13 1017.0 - 0.0 - - - - - - -
22/06:00am 14.9 N 13 16 1016.8 - 0.0 - - - - - - -
22/05:30am 14.1 N 13 16 1016.9 - 0.0 - - - - - - -
22/05:00am 14.8 NNE 12 15 1017.1 - 0.0 - - - - - - -
22/04:30am 14.5 NNE 11 14 1016.9 - 0.0 - - - - - - -
22/04:00am 14.8 NNE 12 16 1017.0 - 0.0 - - - - - - -
22/03:30am 15.6 NNE 12 15 1017.2 - 0.0 - - - - - - -
22/03:00am 15.1 NNE 11 15 1017.7 - 0.0 - - - - - - -
22/02:30am 14.4 NNE 11 15 1018.2 - 0.0 - - - - - - -
22/02:00am 13.7 NNE 11 13 1018.6 - 0.0 - - - - - - -
22/01:30am 14.0 NNE 11 14 1019.0 - 0.0 - - - - - - -
22/01:00am 14.4 NE 10 13 1019.5 - 0.0 - - - - - - -
22/12:30am 14.9 NE 9 14 1019.8 - 0.0 - - - - - - -
22/12:00am 15.7 NE 12 19 1020.2 - 0.0 - - - - - - -
 
Date/Time
EDT
Temp

°C
Wind Pressure Rain
since 9am
mm
Weather Cloud Vis
km
Sea
Height
m
Swell
Dir
 
Speed
knots
Gust
knots
hPa Trend Height
m
Period
s
Dir
21/11:30pm 16.0 NE 12 16 1020.6 - 0.0 - - - - - - -
21/11:00pm 16.7 NE 11 15 1020.8 - 0.0 - - - - - - -
21/10:30pm 16.8 NE 11 16 1021.0 - 0.0 - - - - - - -
21/10:00pm 17.3 NE 10 13 1021.2 - 0.0 - - - - - - -
21/09:30pm 18.1 NE 8 12 1021.0 - 0.0 - - - - - - -
21/09:00pm 19.1 ENE 7 11 1020.9 - 0.0 - - - - - - -
21/08:30pm 16.7 E 5 7 1021.0 - 0.0 - - - - - - -
21/08:00pm 16.8 CALM 0 3 1020.9 - 0.0 - - - - - - -
21/07:30pm 18.7 S 3 4 1021.0 - 0.0 - - - - - - -
21/07:00pm 20.1 S 5 6 1021.0 - 0.0 - - - - - - -
21/06:30pm 20.8 S 7 9 1021.1 - 0.0 - - - - - - -
21/06:00pm 21.4 SSE 7 9 1021.3 - 0.0 - - - - - - -
21/05:30pm 20.6 S 8 9 1021.5 - 0.0 - - - - - - -
21/05:00pm 20.8 S 8 9 1021.7 - 0.0 - - - - - - -
21/04:30pm 22.3 S 8 9 1021.7 - 0.0 - - - - - - -
21/04:00pm 22.8 S 7 9 1022.0 - 0.0 - - - - - - -
21/03:30pm 25.6 NNE 5 9 1022.3 - 0.0 - - - - - - -
21/03:00pm 26.0 N 4 8 1022.7 - 0.0 - - - - - - -
21/02:30pm 24.9 N 5 9 1023.1 - 0.0 - - - - - - -
21/02:00pm 24.8 NE 6 9 1023.6 - 0.0 - - - - - - -
21/01:30pm 23.6 NE 7 10 1023.9 - 0.0 - - - - - - -
21/01:00pm 22.6 NNE 8 11 1024.1 - 0.0 - - - - - - -
21/12:30pm 21.4 NE 9 11 1024.5 - 0.0 - - - - - - -
21/12:00pm 20.1 NNE 11 16 1024.8 - 0.0 - - - - - - -
21/11:30am 19.2 NNE 12 16 1024.9 - 0.0 - - - - - - -
21/11:00am 17.7 NNE 12 17 1025.2 - 0.0 - - - - - - -
21/10:30am 16.2 NE 11 14 1025.5 - 0.0 - - - - - - -
21/10:00am 14.8 ENE 9 15 1025.5 - 0.0 - - - - - - -
21/09:30am 13.5 ENE 10 17 1025.6 - 0.0 - - - - - - -
21/09:00am 12.2 ENE 9 14 1025.6 - 0.4 - - - - - - -
21/08:30am 10.5 ENE 8 12 1025.7 - 0.4 - - - - - - -
21/08:00am 8.5 NE 7 11 1025.7 - 0.4 - - - - - - -
21/07:30am 7.4 ENE 6 9 1025.5 - 0.4 - - - - - - -
21/07:00am 6.6 NE 6 8 1025.5 - 0.4 - - - - - - -
21/06:30am 6.5 ENE 5 8 1025.3 - 0.4 - - - - - - -
21/06:00am 6.3 NE 5 6 1025.3 - 0.4 - - - - - - -
21/05:30am 5.7 NE 4 6 1025.4 - 0.4 - - - - - - -
21/05:00am 6.2 NE 4 6 1025.7 - 0.4 - - - - - - -
21/04:30am 4.5 ENE 4 5 1025.8 - 0.4 - - - - - - -
21/04:00am 6.2 NE 3 5 1025.9 - 0.4 - - - - - - -
21/03:30am 7.0 ENE 6 8 1025.8 - 0.4 - - - - - - -
21/03:00am 6.6 E 7 9 1025.9 - 0.4 - - - - - - -
21/02:30am 5.8 E 5 6 1026.4 - 0.4 - - - - - - -
21/02:00am 6.1 ENE 5 6 1026.9 - 0.4 - - - - - - -
21/01:30am 6.5 E 4 7 1027.3 - 0.4 - - - - - - -
21/01:00am 6.6 E 1 5 1027.7 - 0.4 - - - - - - -
21/12:30am 6.6 ESE 1 3 1028.0 - 0.4 - - - - - - -
21/12:00am 7.1 ESE 3 5 1028.0 - 0.4 - - - - - - -
 
Date/Time
EDT
Temp

°C
Wind Pressure Rain
since 9am
mm
Weather Cloud Vis
km
Sea
Height
m
Swell
Dir
 
Speed
knots
Gust
knots
hPa Trend Height
m
Period
s
Dir
20/11:30pm 6.9 SE 4 5 1028.3 - 0.4 - - - - - - -
20/11:00pm 7.7 ESE 4 5 1028.4 - 0.4 - - - - - - -
20/10:30pm 8.5 ESE 4 6 1028.6 - 0.4 - - - - - - -
20/10:00pm 9.2 E 6 8 1028.6 - 0.4 - - - - - - -
20/09:30pm 9.3 E 5 7 1028.8 - 0.4 - - - - - - -
20/09:00pm 10.1 ENE 7 9 1028.5 - 0.4 - - - - - - -
20/08:30pm 11.3 ENE 9 12 1028.0 - 0.4 - - - - - - -
20/08:00pm 11.9 E 5 7 1027.9 - 0.4 - - - - - - -
20/07:30pm 13.0 ESE 6 11 1027.9 - 0.4 - - - - - - -
20/07:00pm 14.0 SE 9 15 1027.4 - 0.4 - - - - - - -
20/06:30pm 14.8 SE 11 15 1027.5 - 0.4 - - - - - - -
20/06:00pm 15.1 SE 12 17 1027.7 - 0.4 - - - - - - -
20/05:30pm 15.3 SSE 14 21 1028.0 - 0.4 - - - - - - -
20/05:00pm 15.5 SSE 14 19 1028.2 - 0.4 - - - - - - -
20/04:30pm 15.8 SSE 15 20 1028.4 - 0.4 - - - - - - -
20/04:00pm 15.8 SSE 17 22 1028.3 - 0.4 - - - - - - -
20/03:30pm 15.5 SSE 16 22 1028.7 - 0.4 - - - - - - -
20/03:00pm 15.9 SSE 15 23 1028.6 - 0.4 - - - - - - -
20/02:59pm 15.9 SSE 15 23 1028.6 - 0.4 - - - - - - -
20/02:30pm 17.2 SE 10 13 1029.2 - 0.4 - - - - - - -
20/02:00pm 16.8 E 8 14 1029.4 - 0.4 - - - - - - -
20/01:30pm 16.3 ESE 9 16 1029.7 - 0.4 - - - - - - -
20/01:00pm 15.2 E 10 14 1029.9 - 0.4 - - - - - - -
20/12:30pm 15.3 ESE 9 15 1030.5 - 0.4 - - - - - - -
20/12:00pm 14.5 ESE 10 15 1030.7 - 0.4 - - - - - - -
20/11:30am 14.2 ESE 11 18 1031.3 - 0.4 - - - - - - -
20/11:00am 13.7 ESE 10 16 1031.4 - 0.4 - - - - - - -
20/10:30am 12.6 ESE 13 19 1031.4 - 0.0 - - - - - - -
20/10:00am 12.3 ESE 12 18 1031.5 - 0.0 - - - - - - -
20/09:30am 12.1 E 12 20 1031.4 - 0.0 - - - - - - -
20/09:00am 11.5 ESE 10 16 1031.4 - 0.0 - - - - - - -
20/08:30am 10.5 ESE 8 12 1031.1 - 0.0 - - - - - - -
20/08:00am 9.2 SE 7 11 1030.7 - 0.0 - - - - - - -
20/07:30am 7.4 SE 5 10 1030.6 - 0.0 - - - - - - -
20/07:00am 5.7 E 3 5 1030.3 - 0.0 - - - - - - -
20/06:30am 6.0 ESE 6 8 1030.0 - 0.0 - - - - - - -
20/06:00am 6.4 E 5 6 1029.8 - 0.0 - - - - - - -
20/05:30am 6.7 E 4 5 1029.5 - 0.0 - - - - - - -
20/05:00am 7.1 E 4 6 1029.1 - 0.0 - - - - - - -
20/04:30am 7.8 E 5 8 1029.2 - 0.0 - - - - - - -
20/04:00am 8.1 ESE 4 6 1029.0 - 0.0 - - - - - - -
20/03:30am 8.2 ESE 4 6 1029.3 - 0.0 - - - - - - -
20/03:00am 8.8 E 7 8 1029.1 - 0.0 - - - - - - -
20/02:30am 8.3 E 4 8 1029.6 - 0.0 - - - - - - -
20/02:00am 8.7 SE 4 6 1029.5 - 0.0 - - - - - - -
20/01:30am 9.6 SE 7 11 1029.7 - 0.0 - - - - - - -
20/01:00am 10.0 SE 4 7 1029.7 - 0.0 - - - - - - -
20/12:30am 10.3 ESE 5 7 1029.6 - 0.0 - - - - - - -
20/12:00am 10.7 ESE 5 7 1029.5 - 0.0 - - - - - - -
 
Date/Time
EDT
Temp

°C
Wind Pressure Rain
since 9am
mm
Weather Cloud Vis
km
Sea
Height
m
Swell
Dir
 
Speed
knots
Gust
knots
hPa Trend Height
m
Period
s
Dir
19/11:30pm 11.0 SE 9 13 1029.6 - 0.0 - - - - - - -
19/11:00pm 10.9 SSE 13 18 1029.3 - 0.0 - - - - - - -
19/10:30pm 11.2 SSE 13 17 1029.0 - 0.0 - - - - - - -
19/10:00pm 11.2 SSE 12 18 1029.1 - 0.0 - - - - - - -
19/09:30pm 11.4 SSE 12 17 1028.9 - 0.0 - - - - - - -
19/09:00pm 11.5 S 13 19 1028.4 - 0.0 - - - - - - -

Other Formats:

Comma delimited format used in spreadsheet applications
http://www.bom.gov.au/fwo/IDV60701/IDV60701.94837.axf

JavaScript Object Notation format (JSON) in row-major order
http://www.bom.gov.au/fwo/IDV60701/IDV60701.94837.json